[[{"header":{"parameterUnit":"m.s-1","parameterCategory":1,"la1":30.2991,"la2":30.254,"lo1":-89.0895,"lo2":-89.0444,"dy":0.0017,"dx":0.0017,"nx":28,"ny":28,"refTime":"2023-11-01T03:00:00:Z","depth":0,"parameterNumber":2,"parameterNumberName":"U-component_of_WINDS"},"data":[0,0,0,0,0,0,0,0,0,0,0,0,0,0,0,0,0,0,0,0,0,0,0,0,0,0,0,0,0,0,0,0,0,0,0,0,0,0,0,0,0,0,0,0,0,0,0,0,0,0,0,0,0,0,0,0,0,0,-3.4805,-3.4805,0,-3.4784,-3.4784,-3.4783,-3.4649,-3.4645,-3.4642,-3.4639,-3.4622,-3.4625,-3.4627,0,0,0,0,0,0,0,0,0,0,0,0,0,-3.4734,-3.4736,-3.4805,-3.4805,-3.4805,-3.4784,-3.4784,-3.4783,-3.4649,-3.4645,-3.4641,-3.4638,-3.4621,-3.4624,-3.4627,0,0,0,0,0,0,0,0,0,0,0,0,0,-3.4744,-3.4737,-3.4805,-3.4735,-3.4729,-3.4784,-3.4784,-3.4783,-3.465,-3.4645,-3.464,-3.4636,-3.462,-3.4624,-3.4628,-3.475,0,0,-3.464,-3.4641,0,0,0,0,0,0,0,0,-3.4744,-3.4747,-3.4746,-3.474,-3.4733,-3.4714,-3.4752,-3.4772,-3.4651,-3.468,-3.4639,-3.4633,-3.4657,-3.4657,-3.4664,-3.475,-3.4749,-3.464,-3.4642,-3.4644,-3.4645,0,0,0,0,0,0,0,-3.4743,-3.4747,-3.4797,-3.4746,-3.4738,-3.4706,-3.4702,-3.4755,-3.4697,-3.4677,-3.4667,-3.4666,-3.4652,-3.4661,-3.4663,-3.4749,-3.464,-3.4643,-3.4646,-3.4647,-3.4935,-3.494,0,0,0,0,0,0,-3.4752,-3.4748,-3.4797,-3.4796,-3.4726,-3.4712,-3.4707,-3.4725,-3.4695,-3.4686,-3.4671,-3.466,-3.4657,-3.4659,-3.4662,-3.4805,-3.4644,-3.4648,-3.465,-3.493,-3.4936,-3.4942,0,0,0,0,0,0,-3.4751,-3.4758,-3.4798,-3.4769,-3.4772,-3.4718,-3.4739,-3.4727,-3.4735,-3.469,-3.468,-3.469,-3.4653,-3.4656,-3.4729,-3.4803,-3.465,-3.4653,-3.4924,-3.4932,-3.4939,-3.5092,0,0,0,0,0,0,-3.4749,-3.4758,-3.4803,-3.4771,-3.4774,-3.4865,-3.4744,-3.473,-3.4742,-3.4728,-3.4706,-3.4697,-3.4649,-3.4724,-3.4733,-3.4805,-3.4656,-3.4917,-3.4927,-3.4937,-3.508,-3.5104,-3.5125,0,0,0,0,0,-3.4747,-3.4847,-3.4806,-3.4813,-3.4829,-3.487,-3.4872,-3.4813,-3.4748,-3.4794,-3.4765,-3.4698,-3.4793,-3.4733,-3.4742,-3.4816,-3.4912,-3.4924,-3.4936,-3.507,-3.5099,-3.5124,0,0,0,0,0,0,-3.4891,-3.4842,-3.4796,-3.4888,-3.4884,-3.4847,-3.4903,-3.4845,-3.4861,-3.4848,-3.4775,-3.4771,-3.4856,-3.4843,-3.4777,-3.4934,-3.4841,-3.4855,-3.494,-3.4967,-3.4989,-3.4992,-3.4659,0,0,0,0,0,-3.4933,-3.4969,-3.4924,-3.5011,-3.5011,-3.4958,-3.4973,-3.4928,-3.4922,-3.492,-3.4896,-3.4894,-3.4923,-3.4944,-3.4968,-3.5077,-3.5071,-3.5132,-3.5155,-3.5173,-3.5187,-3.5246,-3.5273,-3.4981,-3.4981,-3.4981,0,0,-3.5021,-3.4998,-3.5026,-3.5039,-3.503,-3.5071,-3.4957,-3.5004,-3.5034,-3.4927,-3.4995,-3.4978,-3.4971,-3.5063,-3.5102,-3.5054,-3.5266,-3.5188,-3.5203,-3.5207,-3.5261,-3.5289,-3.5313,-3.4989,-3.4988,-3.4987,0,0,-3.5202,-3.5188,-3.5259,-3.5252,-3.5241,-3.5205,-3.5222,-3.5194,-3.5178,-3.5244,-3.5165,-3.5201,-3.5252,-3.525,-3.5257,-3.5438,-3.5378,-3.5448,-3.5565,-3.5623,-3.5646,-3.5666,-3.5734,-3.5759,-3.5462,-3.5462,-3.5462,0,-3.5314,-3.537,-3.5303,-3.5356,-3.5365,-3.5268,-3.5341,-3.5338,-3.5336,-3.5345,-3.5291,-3.5354,-3.5342,-3.5434,-3.5478,-3.5485,-3.5505,-3.5451,-3.5648,-3.5668,-3.5685,-3.5749,-3.5774,-3.5471,-3.547,-3.5469,-3.5468,0,-3.5509,-3.5549,-3.5608,-3.5607,-3.5622,-3.5685,-3.5629,-3.5653,-3.5607,-3.5577,-3.5647,-3.563,-3.5649,-3.5667,-3.5623,-3.5753,-3.5724,-3.566,-3.5566,-3.5723,-3.5782,-3.5805,-3.5483,-3.548,-3.5478,-3.5475,0,0,-3.5781,-3.5742,-3.5765,-3.5764,-3.5744,-3.5775,-3.5834,-3.5852,-3.5875,-3.5877,-3.5926,-3.5972,-3.5913,-3.592,-3.5874,-3.5925,-3.6073,-3.5855,-3.5854,-3.5899,-3.6219,-3.6269,-3.6298,-3.6032,-3.6036,-3.604,-3.622,0,-3.5957,-3.6054,-3.5995,-3.6102,-3.614,-3.6049,-3.6101,-3.6095,-3.6069,-3.6099,-3.607,-3.6105,-3.6023,-3.6027,-3.6073,-3.6046,-3.6137,-3.6031,-3.608,-3.6083,-3.6087,-3.6328,-3.6381,-3.6552,-3.6242,-3.6246,-3.6249,0,-3.6175,-3.6185,-3.6296,-3.627,-3.6284,-3.6331,-3.6344,-3.6372,-3.6365,-3.6342,-3.6351,-3.6293,-3.6351,-3.6256,-3.6337,-3.6266,-3.6282,-3.6272,-3.6277,-3.6282,-3.6177,-3.6342,-3.6605,-3.6632,-3.6284,-3.6281,-3.6278,0,-3.6366,-3.6407,-3.6479,-3.6481,-3.6452,-3.6488,-3.6477,-3.6465,-3.648,-3.6491,-3.6501,-3.6519,-3.653,-3.6547,-3.6497,-3.6432,-3.6585,-3.6485,-3.6571,-3.6572,-3.6609,-3.6608,-3.6882,-3.6616,-3.6615,-3.6615,-3.6614,0,-3.657,-3.6642,-3.6565,-3.6609,-3.6688,-3.662,-3.67,-3.6681,-3.667,-3.6711,-3.6633,-3.6673,-3.6603,-3.6637,-3.6598,-3.6672,-3.6677,-3.6662,-3.6652,-3.6671,-3.6673,-3.6682,-3.667,-3.6621,-3.662,-3.6619,-3.6617,0,-3.6797,-3.6748,-3.6821,-3.6787,-3.678,-3.684,-3.6812,-3.6853,-3.6821,-3.6873,-3.6882,-3.6833,-3.6869,-3.6819,-3.685,-3.6824,-3.6927,-3.6897,-3.6929,-3.6922,-3.7011,-3.7004,-3.7302,-3.7339,-3.7047,-3.705,-3.7052,0,-3.6932,-3.6985,-3.6957,-3.6978,-3.6972,-3.7006,-3.7021,-3.6957,-3.6976,-3.6972,-3.7015,-3.7043,-3.7063,-3.7125,-3.7094,-3.7117,-3.7089,-3.7192,-3.7092,-3.7111,-3.7094,-3.7093,-3.7099,-3.7213,-3.7217,-3.7219,-3.7222,0,-3.7177,-3.715,-3.7173,-3.719,-3.7209,-3.7219,-3.7223,-3.7245,-3.7178,-3.7204,-3.7238,-3.7254,-3.7285,-3.7316,-3.7332,-3.7323,-3.7263,-3.7253,-3.7274,-3.7296,-3.7314,-3.7308,-3.6988,-3.7247,-3.7245,-3.7243,-3.7241,-3.724,-3.7364,-3.7407,-3.7395,-3.7424,-3.742,-3.7426,-3.7463,-3.7436,-3.7463,-3.7483,-3.7443,-3.7489,-3.7482,-3.7496,-3.7494,-3.753,-3.7486,-3.7517,-3.7525,-3.7534,-3.7549,-3.7306,-3.7533,-3.7532,-3.7531,-3.7531,-3.753,0,-3.7607,-3.7594,-3.7622,-3.7629,-3.7654,-3.7592,-3.7594,-3.7618,-3.7659,-3.7656,-3.7677,-3.7719,-3.7748,-3.7719,-3.7743,-3.7778,-3.7752,-3.7787,-3.7785,-3.7785,-3.7586,-3.7566,-3.7809,-3.7808,-3.7808,-3.7808,-3.7808,-3.7808,-3.7736,-3.7808,-3.778,-3.7849,-3.7836,-3.7879,-3.7886,-3.7891,-3.7889,-3.7939,-3.7962,-3.7942,-3.793,-3.7952,-3.7978,-3.7968,-3.7983,-3.8029,-3.8011,-3.7826,-3.7799,-3.7773,-3.7754,-3.8032,-3.8032,-3.8206,-3.8208,-3.8209]},{"header":{"parameterUnit":"m.s-1","parameterCategory":1,"la1":30.2991,"la2":30.254,"lo1":-89.0895,"lo2":-89.0444,"dy":0.0017,"dx":0.0017,"nx":28,"ny":28,"refTime":"2023-11-01T03:00:00:Z","depth":0,"parameterNumber":3,"parameterNumberName":"V-component_of_WINDS"},"data":[0,0,0,0,0,0,0,0,0,0,0,0,0,0,0,0,0,0,0,0,0,0,0,0,0,0,0,0,0,0,0,0,0,0,0,0,0,0,0,0,0,0,0,0,0,0,0,0,0,0,0,0,0,0,0,0,0,0,-1.2481,-1.2482,0,-1.2558,-1.2559,-1.256,-1.2568,-1.2568,-1.2567,-1.2566,-1.2647,-1.2649,-1.2652,0,0,0,0,0,0,0,0,0,0,0,0,0,-1.2341,-1.2344,-1.2481,-1.2482,-1.2483,-1.2558,-1.2559,-1.256,-1.2569,-1.2568,-1.2567,-1.2566,-1.2646,-1.2649,-1.2652,0,0,0,0,0,0,0,0,0,0,0,0,0,-1.2408,-1.2344,-1.2481,-1.2496,-1.2498,-1.2558,-1.2559,-1.256,-1.2569,-1.2568,-1.2566,-1.2565,-1.2645,-1.2649,-1.2653,-1.2703,0,0,-1.2666,-1.2668,0,0,0,0,0,0,0,0,-1.2404,-1.2413,-1.2493,-1.2495,-1.2498,-1.2552,-1.2539,-1.2608,-1.2569,-1.2542,-1.2566,-1.2565,-1.2616,-1.2623,-1.264,-1.2707,-1.271,-1.2666,-1.2669,-1.2671,-1.2672,0,0,0,0,0,0,0,-1.24,-1.241,-1.2511,-1.2494,-1.2497,-1.2499,-1.2507,-1.2552,-1.2585,-1.2544,-1.2545,-1.2554,-1.2617,-1.2636,-1.2642,-1.2711,-1.2666,-1.267,-1.2673,-1.2674,-1.2822,-1.2824,0,0,0,0,0,0,-1.2392,-1.2406,-1.2509,-1.2514,-1.2447,-1.2503,-1.2512,-1.2536,-1.2584,-1.2591,-1.2555,-1.2554,-1.2629,-1.2637,-1.2645,-1.2707,-1.2671,-1.2675,-1.2677,-1.2821,-1.2823,-1.2824,0,0,0,0,0,0,-1.2389,-1.2401,-1.2506,-1.246,-1.2474,-1.2506,-1.2533,-1.2538,-1.2557,-1.2592,-1.2598,-1.2568,-1.2628,-1.2639,-1.2688,-1.271,-1.2677,-1.2681,-1.2819,-1.2821,-1.2823,-1.2831,0,0,0,0,0,0,-1.2385,-1.24,-1.242,-1.2461,-1.2476,-1.2548,-1.2535,-1.254,-1.2564,-1.2563,-1.2606,-1.2612,-1.2628,-1.2682,-1.2692,-1.2715,-1.2684,-1.2818,-1.282,-1.2823,-1.2829,-1.2833,-1.2836,0,0,0,0,0,-1.238,-1.2419,-1.242,-1.2433,-1.2501,-1.2549,-1.2558,-1.2576,-1.2565,-1.2585,-1.2608,-1.2611,-1.2705,-1.2687,-1.2699,-1.2723,-1.2816,-1.282,-1.2823,-1.2827,-1.2832,-1.2836,0,0,0,0,0,0,-1.238,-1.2425,-1.2427,-1.248,-1.2511,-1.255,-1.2576,-1.258,-1.2615,-1.2613,-1.2634,-1.2643,-1.2692,-1.2712,-1.2691,-1.2773,-1.276,-1.2765,-1.2759,-1.2764,-1.2768,-1.2763,-1.2688,0,0,0,0,0,-1.2386,-1.2421,-1.2458,-1.2502,-1.2517,-1.2544,-1.2565,-1.2576,-1.2609,-1.2622,-1.2649,-1.2681,-1.2717,-1.2742,-1.2777,-1.2831,-1.2841,-1.2853,-1.2857,-1.286,-1.2865,-1.2895,-1.2901,-1.2834,-1.2834,-1.2834,0,0,-1.24,-1.2428,-1.2449,-1.2502,-1.2527,-1.2564,-1.2555,-1.2594,-1.2621,-1.2628,-1.2677,-1.2697,-1.2734,-1.2786,-1.281,-1.2804,-1.2885,-1.2864,-1.2866,-1.2869,-1.2899,-1.2905,-1.2911,-1.2836,-1.2836,-1.2835,0,0,-1.2443,-1.2467,-1.2506,-1.2531,-1.2569,-1.2586,-1.2595,-1.2634,-1.2648,-1.2697,-1.2703,-1.2735,-1.2798,-1.2824,-1.2846,-1.2897,-1.2901,-1.2908,-1.2928,-1.2957,-1.2962,-1.2967,-1.2986,-1.2993,-1.2913,-1.2913,-1.2913,0,-1.2455,-1.251,-1.2526,-1.2564,-1.2588,-1.2595,-1.2634,-1.2658,-1.2705,-1.2721,-1.2714,-1.2792,-1.2818,-1.2876,-1.2888,-1.2905,-1.2916,-1.2904,-1.296,-1.2965,-1.297,-1.2988,-1.2995,-1.2913,-1.2913,-1.2913,-1.2913,0,-1.2523,-1.256,-1.2587,-1.2632,-1.2658,-1.2697,-1.272,-1.2744,-1.2752,-1.277,-1.2819,-1.2849,-1.2891,-1.2905,-1.2914,-1.2965,-1.296,-1.2956,-1.2943,-1.2977,-1.2994,-1.3001,-1.2914,-1.2914,-1.2914,-1.2914,0,0,-1.257,-1.2623,-1.2632,-1.2653,-1.2694,-1.2724,-1.2762,-1.2803,-1.2824,-1.2856,-1.2889,-1.2941,-1.2938,-1.2962,-1.2973,-1.2998,-1.3037,-1.2991,-1.2992,-1.3,-1.3096,-1.31,-1.3107,-1.3039,-1.304,-1.3041,-1.3093,0,-1.2619,-1.2689,-1.2704,-1.2764,-1.2799,-1.2805,-1.2839,-1.2868,-1.2885,-1.2917,-1.2937,-1.2974,-1.2965,-1.298,-1.3005,-1.3027,-1.3057,-1.3023,-1.3071,-1.3073,-1.3064,-1.3117,-1.3121,-1.3168,-1.31,-1.3101,-1.3102,0,-1.2686,-1.2719,-1.2782,-1.2818,-1.2833,-1.2864,-1.2902,-1.2932,-1.2965,-1.2976,-1.3002,-1.301,-1.3051,-1.3034,-1.309,-1.3067,-1.3087,-1.3101,-1.3103,-1.311,-1.3091,-1.3126,-1.3184,-1.3191,-1.3113,-1.3112,-1.3111,0,-1.2716,-1.2776,-1.2821,-1.2838,-1.2881,-1.2902,-1.2921,-1.2952,-1.2976,-1.3009,-1.3024,-1.3061,-1.3082,-1.3111,-1.3128,-1.3114,-1.3184,-1.3168,-1.3195,-1.3194,-1.3211,-1.321,-1.3274,-1.3221,-1.3221,-1.3221,-1.322,0,-1.277,-1.2808,-1.2835,-1.2864,-1.2907,-1.2923,-1.2966,-1.2985,-1.3012,-1.3044,-1.3051,-1.3081,-1.3102,-1.3135,-1.3149,-1.3194,-1.3203,-1.3213,-1.3217,-1.3214,-1.3213,-1.3229,-1.3226,-1.3222,-1.3222,-1.3222,-1.3221,0,-1.2811,-1.2831,-1.2881,-1.2917,-1.2926,-1.2957,-1.2988,-1.3015,-1.3032,-1.3072,-1.3083,-1.3109,-1.3148,-1.3168,-1.3217,-1.3226,-1.3277,-1.3278,-1.3266,-1.3268,-1.3293,-1.3291,-1.3372,-1.3383,-1.3321,-1.3321,-1.3322,0,-1.2845,-1.2875,-1.2914,-1.2935,-1.2955,-1.2989,-1.3013,-1.3029,-1.3053,-1.3092,-1.3115,-1.3154,-1.3187,-1.3248,-1.3272,-1.3309,-1.3312,-1.3337,-1.3318,-1.3313,-1.3314,-1.3312,-1.3316,-1.3342,-1.3342,-1.3343,-1.3343,0,-1.2904,-1.2912,-1.2945,-1.2981,-1.3009,-1.3038,-1.3068,-1.3085,-1.3106,-1.3133,-1.3172,-1.3197,-1.3246,-1.3285,-1.3324,-1.3343,-1.3347,-1.3348,-1.3357,-1.3355,-1.3347,-1.3353,-1.3277,-1.3347,-1.3347,-1.3347,-1.3346,-1.3346,-1.2944,-1.2971,-1.3002,-1.3039,-1.3062,-1.3089,-1.3116,-1.3136,-1.3169,-1.321,-1.3217,-1.3259,-1.329,-1.3342,-1.3363,-1.3396,-1.3391,-1.3402,-1.3406,-1.3409,-1.341,-1.334,-1.3403,-1.3403,-1.3403,-1.3403,-1.3402,0,-1.3004,-1.3024,-1.3057,-1.3097,-1.3126,-1.3125,-1.3157,-1.3182,-1.3218,-1.3246,-1.3278,-1.3323,-1.336,-1.3386,-1.3424,-1.3446,-1.3448,-1.3455,-1.3455,-1.3459,-1.3413,-1.3402,-1.3452,-1.3452,-1.3452,-1.3452,-1.3452,-1.3452,-1.3039,-1.3084,-1.3095,-1.3152,-1.3172,-1.3213,-1.3231,-1.3256,-1.3278,-1.3328,-1.3359,-1.3375,-1.3402,-1.3442,-1.3476,-1.3483,-1.3497,-1.3504,-1.3511,-1.3468,-1.3462,-1.3457,-1.3448,-1.3507,-1.3507,-1.3555,-1.3555,-1.3556]}]]